Wind_Speed
4 5 4 5 6 7 6 5 5 5 5 5 5 4 4 4 3 2 3 4 4 5 7 8 9 9 10 9 10 10 9 9 9 10 10 10 10 10 10 10 10 10 10
6 6 6 6 6 6 6 5 5 5 5 5 5 5 5 4 4 4 3 5 5 6 7 8 8 9 9 10 10 9 9 9 9 10 11 11 10 11 11 11 11 10 10
6 7 7 7 7 7 7 6 5 5 5 5 5 4 5 5 5 5 5 6 6 7 8 8 9 9 9 10 11 9 9 9 9 9 10 10 10 11 11 12 11 12 11
7 7 7 7 7 7 7 7 6 5 6 5 5 5 5 5 6 6 6 6 6 7 8 8 9 10 10 10 11 10 10 10 9 9 9 10 10 10 11 12 12 12 12
8 8 8 8 8 8 8 8 7 6 6 6 6 6 6 6 6 6 6 7 7 7 8 8 9 9 10 10 10 10 10 10 10 10 11 10 11 11 11 12 13 13 13
8 8 9 9 9 9 8 8 8 7 7 6 7 7 6 6 6 6 7 7 7 8 8 8 9 9 10 11 11 11 11 11 11 11 11 11 11 12 12 13 13 13 13
9 9 9 9 9 9 9 9 9 8 7 6 6 7 7 6 6 5 6 6 7 7 8 9 10 10 10 11 11 11 11 12 12 12 12 12 12 12 13 13 14 15 15
9 9 10 9 9 9 9 9 9 9 8 7 7 6 6 7 7 7 7 8 8 9 9 10 10 10 11 11 12 12 12 12 13 13 13 13 14 13 14 14 15 15 14
10 10 10 11 11 11 10 10 9 9 9 8 8 7 7 7 7 8 8 9 9 10 11 12 12 11 11 11 12 12 12 13 14 15 15 15 15 15 15 15 14 14 14
11 11 11 11 11 12 11 11 10 10 9 9 9 9 9 8 7 8 9 10 12 12 12 12 11 11 12 12 12 13 13 14 15 16 17 17 16 17 16 14 15 16 15
12 12 12 11 12 12 12 11 11 11 11 11 11 10 10 9 9 10 10 10 11 12 13 12 12 12 13 13 14 14 14 14 14 15 16 17 16 16 15 14 15 15 15
13 13 13 12 13 13 13 13 13 12 12 12 12 11 11 11 11 11 11 11 12 13 14 14 14 14 13 14 14 15 15 16 16 16 16 16 17 17 16 16 16 16 16
14 14 14 14 14 14 14 14 14 13 13 12 12 13 13 13 13 13 13 13 13 13 14 14 15 15 14 14 15 16 16 16 16 16 17 17 18 19 19 18 18 18 18
14 15 16 16 16 16 16 15 15 15 15 15 14 14 14 14 15 15 15 15 15 15 15 15 16 15 15 16 16 17 17 17 17 17 17 18 18 19 20 19 19 19 18
15 16 16 17 17 17 17 17 17 17 17 17 17 16 16 16 16 16 17 17 17 16 16 17 18 18 18 17 18 18 18 17 18 19 19 19 19 19 19 20 20 20 20
17 17 17 18 18 18 18 19 19 19 19 19 19 19 19 18 18 18 19 19 18 17 17 18 19 20 20 19 19 20 20 19 19 20 20 20 20 19 19 19 20 20 20
18 18 19 19 19 19 20 20 20 20 20 20 20 20 20 20 20 20 20 20 21 20 19 19 20 21 21 21 21 21 21 20 21 21 20 20 20 21 21 20 20 20 21
19 19 19 20 20 20 21 21 21 22 22 22 22 22 22 22 22 22 22 22 22 22 22 21 22 22 22 22 23 22 22 22 22 22 22 22 22 21 21 22 22 22 23
20 20 20 21 21 22 22 22 22 23 23 23 23 23 23 24 24 24 24 24 24 24 24 23 24 24 25 24 24 25 24 25 24 24 24 24 24 23 23 23 23 23 23
21 21 22 22 22 23 23 23 24 24 24 24 24 24 24 24 24 25 25 25 25 25 25 25 25 25 26 26 26 26 26 27 27 27 27 26 26 26 25 25 25 25 25
23 23 23 24 24 24 24 24 24 24 24 25 25 25 26 25 25 26 26 26 27 27 27 27 28 28 28 29 29 29 28 28 28 29 29 28 29 28 28 27 27 26 26
25 25 25 25 26 26 25 25 25 25 26 26 26 26 27 27 27 27 27 28 28 28 29 29 29 30 30 31 31 31 30 30 29 30 30 30 30 29 29 29 29 29 28
26 26 26 27 27 27 27 27 27 27 27 27 27 27 27 28 28 28 28 29 29 30 30 31 31 31 32 32 32 32 32 32 32 31 31 31 31 31 30 30 31 31 30
28 28 28 29 29 29 29 29 29 29 29 29 29 29 29 29 29 29 30 30 31 31 32 33 33 33 33 33 33 33 32 32 33 32 32 32 32 32 32 32 32 32 31
29 29 30 30 30 30 31 31 30 30 30 31 31 31 31 31 31 31 32 32 32 33 33 33 33 33 33 33 33 33 33 33 33 33 33 32 32 33 33 33 33 33 32
30 30 30 30 30 30 31 31 31 31 31 32 32 33 33 33 33 33 33 33 33 33 33 33 34 34 34 34 34 33 33 34 34 34 33 33 33 34 34 33 34 33 33
Wind_Direction
20 15 3 350 346 343 340 332 321 310 304 303 299 295 297 292 278 280 258 244 238 233 229 232 237 238 236 240 236 233 239 239 238 238 235 234 234 233 231 231 233 236 239
9 5 358 353 352 347 343 339 339 327 318 313 307 302 296 300 285 275 258 246 240 237 236 238 241 238 241 246 237 232 237 236 239 240 234 231 233 232 230 232 236 238 241
3 358 355 351 350 351 349 346 342 343 337 334 320 307 298 286 281 265 261 256 248 246 246 243 243 244 247 247 237 232 236 234 237 237 232 229 231 233 230 233 238 239 239
359 358 354 350 349 350 347 346 341 339 339 336 328 315 302 289 281 269 259 255 250 248 245 243 247 245 246 246 240 237 235 235 235 236 234 232 234 237 236 236 238 240 244
358 353 352 353 354 352 348 348 343 335 331 327 321 318 309 294 278 271 262 258 255 252 246 244 243 245 246 250 245 243 239 237 240 241 242 239 239 241 243 242 239 243 248
358 354 353 349 347 345 343 344 342 338 329 320 320 318 313 305 284 271 266 261 259 256 251 248 243 248 251 253 249 246 245 245 243 245 247 245 245 246 247 246 244 246 250
351 349 349 346 343 340 336 336 336 332 330 320 316 317 310 305 295 279 267 262 258 257 255 251 249 250 254 256 251 250 250 249 246 248 249 249 250 250 248 249 250 252 253
341 339 340 340 338 335 332 329 328 326 325 321 313 306 306 300 292 283 274 265 259 258 258 255 256 257 257 260 256 251 252 253 249 249 250 252 254 255 253 254 253 255 259
336 333 333 334 332 329 326 323 323 320 319 316 314 307 303 296 291 288 279 268 263 261 260 258 259 261 265 263 262 257 250 251 253 252 252 251 254 258 259 257 255 257 260
329 328 327 326 324 323 321 320 318 316 312 309 308 305 302 293 286 284 280 275 271 264 260 259 261 266 266 266 266 260 254 251 254 254 255 251 254 256 258 257 256 257 260
323 320 322 320 318 318 317 317 314 311 309 305 302 301 299 297 291 286 280 279 275 272 266 264 264 265 266 265 263 260 261 257 257 257 256 254 254 255 258 259 257 258 261
318 317 316 314 314 312 312 313 314 311 309 306 301 299 295 294 294 291 286 283 282 279 272 267 266 266 266 265 263 260 262 260 258 257 257 257 257 256 256 258 256 257 261
317 317 315 310 308 306 307 308 307 307 308 306 302 298 294 290 290 289 288 286 284 282 277 274 269 266 263 264 262 260 263 266 262 259 259 260 262 260 257 257 258 259 261
314 315 315 312 309 307 306 305 303 302 302 303 302 300 296 290 289 287 286 285 283 280 280 279 276 270 268 267 267 264 262 265 264 261 260 261 263 263 260 260 259 261 263
311 313 313 311 309 306 303 302 301 300 298 297 297 297 295 292 288 286 285 284 282 279 277 277 276 274 271 268 267 265 263 264 265 263 261 261 265 265 264 263 263 263 265
311 311 310 309 307 305 304 301 299 297 296 294 292 293 292 291 289 286 284 283 282 281 279 275 274 272 271 268 266 266 262 262 263 265 265 262 263 264 265 266 265 267 270
314 313 311 310 307 303 303 303 301 297 295 295 293 291 290 288 288 286 283 282 281 279 276 275 274 273 272 270 269 265 262 263 262 264 267 265 264 264 264 265 267 268 271
311 311 311 309 308 305 303 302 301 299 297 296 293 291 290 288 286 285 284 282 280 279 278 275 273 272 271 273 271 268 267 266 266 266 267 267 267 268 265 266 269 271 272
309 309 309 308 306 304 303 302 301 300 299 297 294 292 290 288 286 285 283 281 280 279 277 275 272 272 272 275 274 272 269 269 268 267 267 267 268 267 267 268 270 272 273
306 307 307 306 305 303 302 301 301 300 299 297 296 293 291 289 287 285 283 280 278 277 276 275 272 271 271 273 273 272 270 268 267 268 267 267 267 266 266 266 269 270 271
304 304 304 304 304 302 300 299 299 298 297 296 295 293 291 288 287 285 283 280 279 278 276 275 273 271 271 272 272 272 271 270 267 267 266 266 267 266 265 265 266 269 271
303 303 302 302 301 300 298 297 297 297 296 295 294 292 291 288 286 285 283 282 279 278 277 275 275 274 272 271 271 270 270 269 266 267 267 267 267 265 265 265 267 268 269
303 302 301 300 299 299 297 296 296 296 295 294 294 293 291 288 286 285 284 282 280 278 277 277 276 275 273 272 271 269 269 268 266 267 267 267 267 265 264 264 266 267 268
302 301 299 298 297 296 294 294 295 295 295 294 293 291 290 287 285 284 283 282 280 280 279 279 277 275 274 272 271 270 269 268 268 266 266 266 266 266 266 265 266 267 266
301 300 299 298 297 295 294 294 295 294 294 294 293 291 289 287 285 284 283 282 281 279 279 279 278 276 275 273 271 270 268 267 267 266 266 266 265 265 266 266 265 266 266
302 301 299 298 297 297 296 296 295 294 294 294 293 292 290 288 286 284 282 281 280 279 277 277 277 276 275 274 272 270 269 269 268 268 267 266 265 265 264 264 265 266 267
Height
5876 5876 5875 5874 5873 5872 5871 5870 5869 5869 5868 5868 5867 5867 5866 5865 5864 5864 5864 5864 5865 5866 5867 5868 5868 5869 5869 5870 5870 5871 5871 5871 5872 5872 5872 5873 5874 5876 5877 5878 5879 5881 5882
5876 5875 5875 5874 5873 5872 5871 5870 5869 5868 5867 5867 5866 5866 5865 5865 5864 5864 5864 5864 5864 5865 5866 5867 5867 5867 5868 5868 5868 5868 5869 5869 5869 5869 5870 5871 5872 5873 5875 5876 5877 5879 5880
5876 5875 5875 5874 5873 5872 5870 5869 5868 5868 5867 5866 5865 5865 5865 5864 5864 5863 5863 5863 5863 5864 5865 5865 5866 5866 5866 5865 5866 5866 5867 5867 5867 5867 5867 5868 5870 5871 5873 5874 5876 5876 5877
5877 5876 5875 5873 5872 5871 5870 5869 5868 5867 5866 5865 5865 5864 5864 5863 5863 5862 5862 5862 5862 5862 5863 5863 5864 5864 5864 5864 5864 5865 5865 5865 5865 5865 5866 5867 5868 5870 5871 5872 5873 5874 5875
5877 5876 5875 5873 5872 5871 5869 5868 5867 5866 5865 5865 5864 5863 5863 5862 5861 5861 5861 5861 5861 5861 5861 5861 5862 5862 5862 5863 5863 5863 5863 5864 5864 5864 5865 5866 5867 5868 5869 5870 5871 5872 5873
5877 5876 5874 5873 5872 5870 5869 5868 5866 5865 5864 5863 5863 5862 5861 5861 5860 5860 5859 5859 5859 5859 5859 5859 5860 5860 5860 5861 5861 5861 5861 5862 5862 5863 5864 5864 5865 5866 5867 5868 5869 5870 5870
5877 5875 5874 5873 5871 5870 5869 5867 5866 5865 5864 5862 5862 5861 5860 5859 5859 5858 5858 5857 5857 5857 5857 5858 5858 5858 5858 5858 5858 5859 5859 5860 5860 5861 5862 5862 5863 5864 5864 5865 5866 5867 5867
5876 5875 5873 5872 5870 5869 5868 5866 5865 5864 5862 5861 5860 5859 5859 5858 5857 5856 5856 5855 5855 5855 5855 5855 5856 5856 5856 5856 5856 5856 5857 5857 5858 5858 5859 5860 5860 5861 5862 5862 5863 5864 5864
5875 5874 5872 5871 5870 5868 5866 5865 5864 5862 5861 5860 5858 5858 5857 5856 5855 5854 5853 5853 5853 5853 5853 5853 5853 5853 5853 5853 5853 5853 5854 5854 5855 5855 5856 5857 5858 5858 5859 5859 5859 5860 5861
5874 5872 5871 5869 5868 5866 5865 5863 5862 5861 5859 5858 5857 5856 5854 5853 5853 5852 5851 5850 5850 5850 5850 5850 5850 5850 5850 5850 5850 5851 5851 5851 5852 5852 5853 5853 5854 5855 5855 5856 5856 5857 5857
5872 5871 5869 5867 5866 5864 5863 5861 5860 5859 5857 5856 5854 5853 5852 5851 5850 5850 5849 5848 5847 5847 5846 5846 5846 5847 5847 5847 5847 5848 5848 5848 5849 5849 5849 5849 5850 5851 5851 5852 5853 5853 5854
5870 5868 5866 5865 5863 5862 5860 5859 5858 5856 5855 5853 5852 5851 5849 5848 5848 5847 5846 5845 5845 5844 5843 5843 5843 5843 5843 5843 5844 5844 5845 5845 5845 5845 5845 5846 5847 5847 5848 5848 5849 5849 5849
5867 5865 5864 5862 5861 5859 5857 5856 5855 5853 5852 5851 5849 5848 5846 5845 5845 5844 5843 5843 5842 5841 5840 5840 5839 5840 5840 5840 5840 5840 5841 5841 5841 5841 5841 5842 5842 5843 5843 5844 5844 5844 5845
5864 5862 5861 5859 5857 5856 5854 5853 5851 5850 5849 5847 5846 5844 5843 5842 5841 5840 5840 5839 5838 5838 5837 5836 5836 5835 5835 5835 5836 5836 5836 5837 5837 5837 5837 5837 5838 5838 5838 5839 5839 5840 5840
5861 5859 5857 5855 5854 5852 5850 5849 5847 5846 5844 5843 5842 5840 5839 5838 5837 5836 5835 5834 5834 5834 5833 5833 5832 5831 5831 5830 5831 5831 5831 5832 5832 5832 5832 5833 5833 5833 5834 5834 5834 5835 5835
5857 5855 5854 5852 5850 5848 5846 5844 5843 5841 5840 5838 5837 5836 5834 5833 5832 5831 5830 5829 5829 5829 5829 5828 5827 5826 5825 5825 5826 5826 5826 5827 5827 5827 5828 5828 5828 5828 5829 5829 5829 5829 5830
5854 5852 5849 5847 5845 5843 5842 5840 5838 5836 5835 5833 5832 5830 5829 5828 5827 5826 5825 5824 5823 5823 5823 5823 5822 5821 5820 5820 5820 5820 5820 5821 5822 5822 5823 5823 5823 5823 5823 5823 5823 5824 5824
5850 5847 5845 5843 5841 5839 5837 5835 5833 5831 5829 5827 5826 5824 5823 5822 5821 5820 5819 5818 5817 5817 5817 5817 5816 5815 5814 5814 5814 5815 5815 5815 5816 5816 5816 5816 5816 5816 5817 5817 5817 5817 5817
5845 5843 5841 5838 5836 5834 5832 5830 5828 5825 5823 5821 5820 5818 5817 5815 5814 5813 5812 5812 5811 5810 5809 5809 5809 5808 5808 5808 5807 5808 5808 5808 5808 5809 5809 5809 5810 5810 5810 5811 5811 5811 5810
5841 5838 5836 5833 5831 5829 5826 5824 5822 5820 5817 5815 5813 5812 5810 5809 5807 5806 5805 5804 5804 5803 5802 5802 5802 5801 5801 5800 5800 5800 5800 5800 5801 5801 5802 5802 5802 5803 5803 5803 5803 5804 5803
5835 5833 5830 5828 5825 5823 5820 5818 5816 5813 5811 5809 5807 5805 5803 5801 5800 5799 5798 5797 5796 5795 5795 5794 5794 5793 5793 5792 5792 5792 5792 5792 5793 5793 5794 5794 5794 5794 5795 5795 5795 5796 5796
5829 5826 5824 5821 5819 5816 5814 5811 5809 5807 5804 5802 5800 5797 5795 5794 5792 5791 5789 5788 5788 5787 5786 5786 5785 5785 5784 5784 5783 5784 5784 5784 5785 5785 5785 5785 5785 5786 5786 5787 5787 5788 5788
5822 5820 5817 5814 5812 5809 5806 5804 5802 5799 5797 5794 5792 5789 5787 5786 5784 5783 5781 5780 5778 5777 5777 5777 5776 5775 5774 5774 5774 5774 5774 5774 5775 5775 5775 5776 5776 5777 5777 5778 5779 5779 5779
5816 5813 5810 5807 5804 5801 5799 5796 5793 5791 5788 5786 5783 5781 5779 5777 5775 5774 5773 5771 5770 5768 5767 5766 5766 5765 5765 5764 5763 5764 5764 5764 5765 5765 5765 5765 5766 5766 5767 5768 5769 5769 5770
5808 5805 5802 5799 5796 5793 5790 5787 5785 5782 5779 5777 5774 5772 5770 5768 5766 5764 5763 5762 5760 5759 5757 5756 5755 5754 5754 5753 5753 5753 5753 5754 5754 5755 5755 5755 5756 5756 5757 5758 5758 5759 5759
5800 5797 5793 5790 5787 5784 5781 5778 5775 5773 5770 5768 5765 5762 5760 5758 5756 5754 5752 5751 5750 5749 5747 5746 5745 5744 5743 5742 5742 5742 5743 5743 5743 5744 5745 5745 5746 5746 5747 5748 5748 5749 5749